SV7JLF-3 Weather Reports


time (UTC)temp
F
wind
direction
speed
knots
gust
knots
rain 1hr
in
rain 24hr
in
rain mn
in
humidity
%
barometer
mb
20260505130128 83 265 3.5 0.0 0.00 0.00 0.00 29 1013.3
20260505125034 84 327 3.5 0.0 0.00 0.00 0.00 28 1013.6
20260505124958 83 338 2.6 7.8 0.00 0.00 0.00 28 1013.4
20260505124612 83 342 5.2 0.0 0.00 0.00 0.00 29 1013.8
20260505124530 84 342 5.2 0.0 0.00 0.00 0.00 29 1013.7
20260505124018 84 277 6.1 0.0 0.00 0.00 0.00 31 1013.8
20260505123958 84 293 5.2 10.4 0.00 0.00 0.00 29 1013.5
20260505123535 84 319 7.0 0.0 0.00 0.00 0.00 31 1013.8
20260505123117 83 307 6.1 0.0 0.00 0.00 0.00 28 1013.9
20260505123028 84 304 6.1 0.0 0.00 0.00 0.00 31 1014.0
20260505122958 84 311 8.7 11.3 0.00 0.00 0.00 29 1013.7
20260505122540 84 283 3.5 0.0 0.00 0.00 0.00 25 1013.9
20260505122030 84 327 3.5 0.0 0.00 0.00 0.00 26 1013.9
20260505121627 84 264 3.5 0.0 0.00 0.00 0.00 26 1013.9
20260505121529 84 265 4.3 0.0 0.00 0.00 0.00 30 1014.0
20260505121044 84 249 5.2 0.0 0.00 0.00 0.00 33 1014.0
20260505120959 84 249 2.6 10.4 0.00 0.00 0.00 30 1013.7
20260505120536 84 283 4.3 0.0 0.00 0.00 0.00 30 1014.2
20260505120105 83 302 4.3 0.0 0.00 0.00 0.00 31 1014.1
20260505120022 83 302 3.5 0.0 0.00 0.00 0.00 30 1014.1
20260505115959 83 261 3.5 7.8 0.00 0.00 0.00 30 1013.7
20260505115532 83 188 4.3 0.0 0.00 0.00 0.00 28 1014.1
20260505115023 84 246 4.3 0.0 0.00 0.00 0.00 28 1014.1
20260505114958 84 256 4.3 7.8 0.00 0.00 0.00 30 1013.9
20260505114604 83 254 5.2 0.0 0.00 0.00 0.00 33 1014.1
20260505114539 83 264 4.3 0.0 0.00 0.00 0.00 32 1014.2
20260505114033 83 229 5.2 0.0 0.00 0.00 0.00 31 1014.1
20260505113959 83 254 5.2 10.4 0.00 0.00 0.00 29 1013.9
20260505113531 83 242 5.2 0.0 0.00 0.00 0.00 27 1014.3
20260505113042 83 290 5.2 0.0 0.00 0.00 0.00 27 1014.3
20260505113023 82 284 5.2 0.0 0.00 0.00 0.00 27 1014.3
20260505112959 83 279 4.3 10.4 0.00 0.00 0.00 30 1014.0
20260505112531 83 241 5.2 0.0 0.00 0.00 0.00 31 1014.4
20260505112023 82 263 4.3 0.0 0.00 0.00 0.00 34 1014.5
20260505111959 82 269 6.1 7.8 0.00 0.00 0.00 28 1014.3
20260505111547 82 243 3.5 0.0 0.00 0.00 0.00 28 1014.5
20260505111527 83 244 3.5 0.0 0.00 0.00 0.00 32 1014.6
20260505111022 82 264 5.2 0.0 0.00 0.00 0.00 28 1014.6
20260505111000 82 263 5.2 10.4 0.00 0.00 0.00 32 1014.2
20260505110553 82 269 6.1 0.0 0.00 0.00 0.00 28 1014.6
20260505110130 82 269 5.2 0.0 0.00 0.00 0.00 31 1014.5
20260505102026 81 233 5.2 0.0 0.00 0.00 0.00 33 1014.9
20260505101959 81 247 5.2 10.4 0.00 0.00 0.00 34 1014.6
20260505101614 80 273 4.3 0.0 0.00 0.00 0.00 36 1014.8
20260505101552 80 257 4.3 0.0 0.00 0.00 0.00 36 1014.9
20260505101023 80 226 4.3 0.0 0.00 0.00 0.00 35 1015.0
20260505100958 80 248 4.3 7.8 0.00 0.00 0.00 32 1014.7
20260505100534 80 259 4.3 0.0 0.00 0.00 0.00 35 1015.1
20260505100151 79 255 5.2 0.0 0.00 0.00 0.00 35 1015.0
20260505100049 80 291 4.3 0.0 0.00 0.00 0.00 33 1015.1
20260505095958 80 253 4.3 8.7 0.00 0.00 0.00 33 1014.8
20260505095542 80 297 5.2 0.0 0.00 0.00 0.00 37 1015.3
20260505095052 79 270 5.2 0.0 0.00 0.00 0.00 36 1015.3
20260505094959 79 248 5.2 11.3 0.00 0.00 0.00 36 1014.9
20260505094612 79 316 5.2 0.0 0.00 0.00 0.00 39 1015.3
20260505094525 79 331 5.2 0.0 0.00 0.00 0.00 39 1015.3
20260505094034 79 286 5.2 0.0 0.00 0.00 0.00 36 1015.3
20260505093959 79 257 3.5 10.4 0.00 0.00 0.00 34 1015.1
20260505093524 79 292 6.1 0.0 0.00 0.00 0.00 38 1015.6
20260505093108 78 270 6.1 0.0 0.00 0.00 0.00 38 1015.5
20260505093034 79 253 6.1 0.0 0.00 0.00 0.00 41 1015.6
20260505092958 79 277 5.2 8.7 0.00 0.00 0.00 38 1015.1
20260505092527 79 272 5.2 0.0 0.00 0.00 0.00 39 1015.5
20260505092030 79 266 4.3 0.0 0.00 0.00 0.00 40 1015.6
20260505092000 79 295 5.2 7.8 0.00 0.00 0.00 38 1015.3
20260505091606 77 297 4.3 0.0 0.00 0.00 0.00 37 1015.6
20260505091545 78 262 4.3 0.0 0.00 0.00 0.00 37 1015.5
20260505091103 78 246 5.2 0.0 0.00 0.00 0.00 37 1015.6
20260505090959 78 286 5.2 10.4 0.00 0.00 0.00 36 1015.2
20260505090531 77 294 4.3 0.0 0.00 0.00 0.00 38 1015.7
20260505090128 77 272 4.3 0.0 0.00 0.00 0.00 37 1015.7
20260505090022 77 231 4.3 0.0 0.00 0.00 0.00 37 1015.6
20260505085958 77 220 3.5 7.8 0.00 0.00 0.00 39 1015.2
20260505085529 77 252 4.3 0.0 0.00 0.00 0.00 41 1015.7
20260505085021 77 249 5.2 0.0 0.00 0.00 0.00 38 1015.7
20260505084959 77 254 6.1 10.4 0.00 0.00 0.00 38 1015.4
20260505084626 76 247 6.1 0.0 0.00 0.00 0.00 38 1015.8
20260505084539 76 268 6.1 0.0 0.00 0.00 0.00 38 1015.8
20260505084031 76 284 6.1 0.0 0.00 0.00 0.00 37 1015.9
20260505083959 76 293 6.1 10.4 0.00 0.00 0.00 37 1015.5
20260505083518 76 269 6.1 0.0 0.00 0.00 0.00 36 1015.9
20260505083112 76 283 6.1 0.0 0.00 0.00 0.00 36 1015.8
20260505083031 76 275 6.1 0.0 0.00 0.00 0.00 35 1015.9
20260505082959 76 273 7.0 10.4 0.00 0.00 0.00 36 1015.5
20260505082526 76 281 6.1 0.0 0.00 0.00 0.00 37 1015.9
20260505082034 76 282 6.1 0.0 0.00 0.00 0.00 41 1016.0
20260505081959 75 293 5.2 10.4 0.00 0.00 0.00 40 1015.6
20260505081629 75 283 7.0 0.0 0.00 0.00 0.00 41 1016.1
20260505081552 75 299 7.0 0.0 0.00 0.00 0.00 40 1015.9
20260505081021 75 284 7.0 0.0 0.00 0.00 0.00 40 1015.9
20260505081000 75 291 7.0 10.4 0.00 0.00 0.00 41 1015.5
20260505080538 74 279 7.0 0.0 0.00 0.00 0.00 40 1015.9
20260505080026 74 287 7.8 0.0 0.00 0.00 0.00 38 1016.1
20260505075959 74 281 7.8 10.4 0.00 0.00 0.00 40 1015.7
20260505075519 74 269 7.8 0.0 0.00 0.00 0.00 44 1016.1
20260505075030 73 290 7.8 0.0 0.00 0.00 0.00 43 1016.0
20260505074553 73 261 7.8 0.0 0.00 0.00 0.00 44 1015.9
20260505074535 73 267 7.8 0.0 0.00 0.00 0.00 44 1016.0
20260505074032 73 285 7.8 0.0 0.00 0.00 0.00 45 1016.1
20260505073958 73 278 8.7 10.4 0.00 0.00 0.00 44 1015.8
20260505073523 72 296 7.8 0.0 0.00 0.00 0.00 50 1016.2
20260505073100 72 275 7.8 0.0 0.00 0.00 0.00 46 1016.3
20260505073029 72 308 7.8 0.0 0.00 0.00 0.00 46 1016.2
20260505072959 72 279 7.8 10.4 0.00 0.00 0.00 46 1015.9
20260505072530 72 276 7.0 0.0 0.00 0.00 0.00 48 1016.1
20260505072023 71 283 6.1 0.0 0.00 0.00 0.00 51 1016.2
20260505071959 71 281 6.1 10.4 0.00 0.00 0.00 49 1015.9
20260505071534 71 273 6.1 0.0 0.00 0.00 0.00 49 1016.3
20260505071513 70 275 6.1 0.0 0.00 0.00 0.00 49 1016.2
20260505071022 70 286 6.1 0.0 0.00 0.00 0.00 50 1016.3
20260505070534 70 305 6.1 0.0 0.00 0.00 0.00 48 1016.4
20260505070042 69 296 5.2 0.0 0.00 0.00 0.00 53 1016.4
20260505070022 69 298 5.2 0.0 0.00 0.00 0.00 53 1016.4
20260505070000 69 292 5.2 8.7 0.00 0.00 0.00 53 1016.0
20260505065601 68 299 7.0 0.0 0.00 0.00 0.00 56 1016.3
20260505065024 67 273 7.0 0.0 0.00 0.00 0.00 56 1016.3
20260505065000 67 274 7.8 10.4 0.00 0.00 0.00 57 1016.1
20260505064614 66 279 6.1 0.0 0.00 0.00 0.00 59 1016.4
20260505064533 67 291 6.1 0.0 0.00 0.00 0.00 59 1016.3
20260505064044 66 286 5.2 0.0 0.00 0.00 0.00 60 1016.4
20260505064000 66 285 6.1 8.7 0.00 0.00 0.00 59 1016.1
20260505063532 65 311 4.3 0.0 0.00 0.00 0.00 61 1016.2
20260505063039 64 294 4.3 0.0 0.00 0.00 0.00 63 1016.3
20260505063006 64 310 3.5 0.0 0.00 0.00 0.00 62 1016.3
20260505062522 64 304 3.5 0.0 0.00 0.00 0.00 63 1016.4
20260505062028 63 284 3.5 0.0 0.00 0.00 0.00 66 1016.5
20260505062000 63 311 1.7 7.0 0.00 0.00 0.00 66 1016.2
20260505061621 62 272 3.5 0.0 0.00 0.00 0.00 65 1016.6
20260505061533 62 278 3.5 0.0 0.00 0.00 0.00 64 1016.6
20260505061043 62 295 2.6 0.0 0.00 0.00 0.00 65 1016.7
20260505061000 62 308 2.6 5.2 0.00 0.00 0.00 66 1016.4
20260505060528 61 315 1.7 0.0 0.00 0.00 0.00 66 1016.7
20260505060110 60 302 2.6 0.0 0.00 0.00 0.00 66 1016.6
20260505060035 61 302 2.6 0.0 0.00 0.00 0.00 66 1016.7
20260505060002 61 304 1.7 4.3 0.00 0.00 0.00 66 1016.4
20260505055529 60 299 2.6 0.0 0.00 0.00 0.00 65 1016.7
20260505055035 60 321 2.6 0.0 0.00 0.00 0.00 66 1016.7
20260505054959 60 324 2.6 4.3 0.00 0.00 0.00 66 1016.5
20260505054600 59 346 2.6 0.0 0.00 0.00 0.00 67 1016.8
20260505054521 60 346 2.6 0.0 0.00 0.00 0.00 67 1016.8
20260505054055 59 360 2.6 0.0 0.00 0.00 0.00 67 1016.6
20260505053959 59 354 2.6 4.3 0.00 0.00 0.00 67 1016.4
20260505053527 59 355 3.5 0.0 0.00 0.00 0.00 69 1016.7
20260505053040 59 348 2.6 0.0 0.00 0.00 0.00 71 1016.7
20260505053026 58 342 2.6 0.0 0.00 0.00 0.00 72 1016.7
20260505052959 58 343 2.6 4.3 0.00 0.00 0.00 73 1016.3
20260505052531 58 344 3.5 0.0 0.00 0.00 0.00 73 1016.5
20260505052023 58 329 3.5 0.0 0.00 0.00 0.00 74 1016.6
20260505051533 57 341 2.6 0.0 0.00 0.00 0.00 76 1016.6
20260505051517 57 345 2.6 0.0 0.00 0.00 0.00 77 1016.5
20260505051019 56 342 2.6 0.0 0.00 0.00 0.00 79 1016.5
20260505050959 56 342 2.6 2.6 0.00 0.00 0.00 79 1016.1
20260505050554 55 336 1.7 0.0 0.00 0.00 0.00 80 1016.6
20260505050113 54 317 0.9 0.0 0.00 0.00 0.00 82 1016.5
20260505041621 48 9 0.0 0.0 0.00 0.00 0.00 84 1016.5
20260505041532 49 9 0.0 0.0 0.00 0.00 0.00 84 1016.6
20260505041042 48 86 0.0 0.0 0.00 0.00 0.00 83 1016.6
20260505040530 48 86 0.0 0.0 0.00 0.00 0.00 83 1016.5
20260505040115 48 76 0.9 0.0 0.00 0.00 0.00 83 1016.6
20260505040020 48 77 0.9 0.0 0.00 0.00 0.00 83 1016.7
20260505040000 48 76 0.0 2.6 0.00 0.00 0.00 83 1016.3
20260505035556 48 76 1.7 0.0 0.00 0.00 0.00 83 1016.6
20260505035032 48 76 1.7 0.0 0.00 0.00 0.00 82 1016.6
20260505034555 48 82 0.9 0.0 0.00 0.00 0.00 82 1016.6
20260505034536 48 82 0.9 0.0 0.00 0.00 0.00 82 1016.5
20260505034034 48 82 1.7 0.0 0.00 0.00 0.00 82 1016.4
20260505034000 48 82 0.0 2.6 0.00 0.00 0.00 82 1016.2
20260505033525 48 82 1.7 0.0 0.00 0.00 0.00 82 1016.5
20260505033104 48 88 0.9 0.0 0.00 0.00 0.00 81 1016.4
20260505033037 49 88 0.9 0.0 0.00 0.00 0.00 81 1016.5
20260505032532 49 105 1.7 0.0 0.00 0.00 0.00 81 1016.3
20260505032020 49 105 1.7 0.0 0.00 0.00 0.00 80 1016.4
20260505031959 49 106 1.7 2.6 0.00 0.00 0.00 80 1016.1
20260505031603 48 237 0.9 0.0 0.00 0.00 0.00 80 1016.4
20260505031533 49 237 0.9 0.0 0.00 0.00 0.00 80 1016.3
20260505031031 49 241 0.9 0.0 0.00 0.00 0.00 79 1016.4
20260505031000 49 241 0.0 2.6 0.00 0.00 0.00 79 1016.1
20260505030521 49 241 1.7 0.0 0.00 0.00 0.00 78 1016.4
20260505030112 48 240 2.6 0.0 0.00 0.00 0.00 79 1016.4
20260505030053 49 240 2.6 0.0 0.00 0.00 0.00 79 1016.5
20260505030000 48 237 1.7 2.6 0.00 0.00 0.00 79 1016.1
20260505025552 49 217 2.6 0.0 0.00 0.00 0.00 79 1016.4
20260505025025 49 200 1.7 0.0 0.00 0.00 0.00 79 1016.4
20260505025000 49 182 2.6 2.6 0.00 0.00 0.00 79 1016.1
20260505024631 48 50 0.9 0.0 0.00 0.00 0.00 79 1016.4
20260505024555 49 50 0.9 0.0 0.00 0.00 0.00 79 1016.6
20260505024032 49 53 0.0 0.0 0.00 0.00 0.00 79 1016.5
20260505023959 49 53 0.0 1.7 0.00 0.00 0.00 79 1016.3
20260505023520 49 53 0.0 0.0 0.00 0.00 0.00 78 1016.6
20260505023118 49 53 0.9 0.0 0.00 0.00 0.00 78 1016.5
20260505023034 50 53 0.9 0.0 0.00 0.00 0.00 78 1016.6
20260505023000 50 53 0.0 1.7 0.00 0.00 0.00 78 1016.3
20260505022526 50 53 1.7 0.0 0.00 0.00 0.00 78 1016.6
20260505022023 50 52 2.6 0.0 0.00 0.00 0.00 77 1016.5
20260505022000 50 52 0.9 4.3 0.00 0.00 0.00 77 1016.1
20260505021627 50 52 2.6 0.0 0.00 0.00 0.00 76 1016.7
20260505021518 51 52 2.6 0.0 0.00 0.00 0.00 76 1016.6
20260505021023 52 40 1.7 0.0 0.00 0.00 0.00 74 1016.7
20260505021000 52 38 2.6 2.6 0.00 0.00 0.00 74 1016.3
20260505020534 52 325 1.7 0.0 0.00 0.00 0.00 72 1016.5
20260505020033 52 324 0.9 0.0 0.00 0.00 0.00 71 1016.6
20260505020002 52 325 0.9 0.0 0.00 0.00 0.00 71 1016.5
20260505020000 52 316 1.7 2.6 0.00 0.00 0.00 71 1016.4
20260505015523 52 263 0.9 0.0 0.00 0.00 0.00 71 1016.6
20260505015033 52 207 2.6 0.0 0.00 0.00 0.00 71 1016.6
20260505014959 52 207 0.9 6.1 0.00 0.00 0.00 71 1016.3
20260505014627 51 221 3.5 0.0 0.00 0.00 0.00 71 1016.6
20260505014526 52 221 3.5 0.0 0.00 0.00 0.00 71 1016.6
20260505014040 51 233 3.5 0.0 0.00 0.00 0.00 72 1016.5
20260505013532 51 232 3.5 0.0 0.00 0.00 0.00 73 1016.6
20260505013131 50 249 4.3 0.0 0.00 0.00 0.00 74 1016.6
20260505013048 51 232 4.3 0.0 0.00 0.00 0.00 74 1016.6
20260505013000 50 233 4.3 6.1 0.00 0.00 0.00 74 1016.2
20260505012543 50 243 3.5 0.0 0.00 0.00 0.00 75 1016.5
20260505012033 50 231 2.6 0.0 0.00 0.00 0.00 76 1016.6
20260505012000 50 234 4.3 4.3 0.00 0.00 0.00 77 1016.3
20260505011623 49 245 2.6 0.0 0.00 0.00 0.00 78 1016.6
20260505011530 49 229 2.6 0.0 0.00 0.00 0.00 78 1016.6
20260505011047 49 227 1.7 0.0 0.00 0.00 0.00 79 1016.7
20260505011000 49 232 1.7 2.6 0.00 0.00 0.00 79 1016.2
20260505010540 49 225 0.9 0.0 0.00 0.00 0.00 79 1016.7
20260505010118 49 225 0.9 0.0 0.00 0.00 0.00 80 1016.7
20260505010052 49 231 0.9 0.0 0.00 0.00 0.00 80 1016.7
20260505005528 49 285 1.7 0.0 0.00 0.00 0.00 80 1016.4
20260505005043 49 285 0.9 0.0 0.00 0.00 0.00 80 1016.7
20260505005000 49 285 1.7 2.6 0.00 0.00 0.00 80 1016.3
20260505004557 49 263 0.9 0.0 0.00 0.00 0.00 80 1016.6
20260505004533 49 263 0.9 0.0 0.00 0.00 0.00 80 1016.5
20260505004026 49 262 1.7 0.0 0.00 0.00 0.00 79 1016.5
20260505004000 49 262 1.7 2.6 0.00 0.00 0.00 79 1016.2
20260505003544 50 262 0.9 0.0 0.00 0.00 0.00 80 1016.6
20260505003102 49 5 0.9 0.0 0.00 0.00 0.00 79 1016.7
20260505003033 50 5 0.9 0.0 0.00 0.00 0.00 79 1016.7
20260505003000 50 5 0.9 2.6 0.00 0.00 0.00 79 1016.3
20260505002530 50 5 1.7 0.0 0.00 0.00 0.00 79 1016.5
20260505002041 50 5 1.7 0.0 0.00 0.00 0.00 78 1016.5
20260505002001 50 5 0.9 2.6 0.00 0.00 0.00 78 1016.3
20260505001612 50 5 1.7 0.0 0.00 0.00 0.00 78 1016.4
20260505001532 51 5 1.7 0.0 0.00 0.00 0.00 78 1016.6
20260505001024 51 5 1.7 0.0 0.00 0.00 0.00 77 1016.6
20260505000531 51 5 1.7 0.0 0.00 0.00 0.00 76 1016.7
20260505000108 50 5 1.7 0.0 0.00 0.00 0.00 75 1016.8
20260505000025 51 5 1.7 0.0 0.00 0.00 0.00 75 1016.7
20260505000000 51 3 2.6 2.6 0.00 0.00 0.00 75 1016.5
20260504235535 51 355 2.6 0.0 0.00 0.00 0.00 74 1016.7
20260504235051 51 249 2.6 0.0 0.00 0.00 0.00 74 1016.6
20260504235001 51 250 1.7 4.3 0.00 0.00 0.00 74 1016.2
20260504234549 50 226 0.9 0.0 0.00 0.00 0.00 74 1016.5
20260504234537 51 225 0.9 0.0 0.00 0.00 0.00 74 1016.5
20260504234033 51 301 0.0 0.0 0.00 0.00 0.00 74 1016.5
20260504234001 51 301 0.0 1.7 0.00 0.00 0.00 74 1016.2
20260504233532 51 301 0.9 0.0 0.00 0.00 0.00 74 1016.5
20260504233057 51 301 1.7 0.0 0.00 0.00 0.00 73 1016.6
20260504233036 51 301 1.7 0.0 0.00 0.00 0.00 73 1016.8
20260504232533 51 301 1.7 0.0 0.00 0.00 0.00 73 1016.7
20260504232048 51 281 3.5 0.0 0.00 0.00 0.00 73 1016.9
20260504232000 51 254 1.7 7.8 0.00 0.00 0.00 73 1016.6
20260504231542 51 232 4.3 0.0 0.00 0.00 0.00 73 1016.9
20260504231517 50 236 4.3 0.0 0.00 0.00 0.00 74 1016.9
20260504231031 50 248 3.5 0.0 0.00 0.00 0.00 74 1017.1
20260504231001 50 239 4.3 7.8 0.00 0.00 0.00 75 1016.6
20260504230550 50 223 3.5 0.0 0.00 0.00 0.00 76 1016.9
20260504230042 49 234 4.3 0.0 0.00 0.00 0.00 76 1017.0
20260504230009 49 232 4.3 0.0 0.00 0.00 0.00 76 1017.0
20260504230001 49 234 3.5 6.1 0.00 0.00 0.00 76 1016.6
20260504225535 49 220 3.5 0.0 0.00 0.00 0.00 77 1017.0
20260504225029 49 207 3.5 0.0 0.00 0.00 0.00 76 1016.9
20260504225001 49 209 2.6 5.2 0.00 0.00 0.00 76 1016.9
20260504224544 50 208 3.5 0.0 0.00 0.00 0.00 76 1017.2
20260504224517 49 206 3.5 0.0 0.00 0.00 0.00 76 1017.2
20260504224033 50 205 2.6 0.0 0.00 0.00 0.00 75 1017.2
20260504224001 50 205 2.6 6.1 0.00 0.00 0.00 75 1016.8
20260504223526 50 149 2.6 0.0 0.00 0.00 0.00 74 1017.2
20260504223039 51 86 2.6 0.0 0.00 0.00 0.00 74 1017.4
20260504223018 50 87 2.6 0.0 0.00 0.00 0.00 74 1017.4
20260504223001 51 79 1.7 6.1 0.00 0.00 0.00 74 1017.0
20260504222527 51 22 0.9 0.0 0.00 0.00 0.00 74 1017.3
20260504222038 52 22 0.9 0.0 0.00 0.00 0.00 73 1017.3
20260504222000 52 22 0.9 1.7 0.00 0.00 0.00 73 1017.1
20260504221556 51 22 0.9 0.0 0.00 0.00 0.00 72 1017.4
20260504221526 52 22 0.9 0.0 0.00 0.00 0.00 72 1017.4
20260504221021 52 22 0.0 0.0 0.00 0.00 0.00 72 1017.2
20260504221001 52 22 0.0 0.0 0.00 0.00 0.00 72 1016.9
20260504220536 53 22 0.0 0.0 0.00 0.00 0.00 71 1017.2
20260504220050 52 22 0.9 0.0 0.00 0.00 0.00 71 1017.1
20260504220028 53 22 0.9 0.0 0.00 0.00 0.00 71 1017.1
20260504220001 53 22 0.9 2.6 0.00 0.00 0.00 71 1016.9
20260504215523 53 22 1.7 0.0 0.00 0.00 0.00 69 1017.2
20260504215037 52 240 2.6 0.0 0.00 0.00 0.00 68 1017.2
20260504215000 52 240 1.7 4.3 0.00 0.00 0.00 68 1016.9
20260504214604 52 240 2.6 0.0 0.00 0.00 0.00 69 1017.1
20260504214529 52 240 2.6 0.0 0.00 0.00 0.00 70 1017.1
20260504214056 52 193 2.6 0.0 0.00 0.00 0.00 71 1017.2
20260504214001 52 193 0.9 4.3 0.00 0.00 0.00 71 1016.8
20260504213531 52 223 2.6 0.0 0.00 0.00 0.00 71 1017.2
20260504213042 52 199 1.7 0.0 0.00 0.00 0.00 72 1017.2
20260504213010 52 198 1.7 0.0 0.00 0.00 0.00 73 1017.1
20260504213001 52 182 0.9 2.6 0.00 0.00 0.00 73 1016.9
20260504212534 52 179 0.9 0.0 0.00 0.00 0.00 73 1017.2
20260504212027 53 179 0.9 0.0 0.00 0.00 0.00 74 1017.1
20260504212001 53 179 0.0 2.6 0.00 0.00 0.00 74 1016.8
20260504211648 53 179 1.7 0.0 0.00 0.00 0.00 73 1017.0
20260504211546 53 179 1.7 0.0 0.00 0.00 0.00 73 1017.2
20260504211038 54 186 1.7 0.0 0.00 0.00 0.00 73 1017.1
20260504210529 54 22 0.9 0.0 0.00 0.00 0.00 72 1017.0
20260504210128 54 13 1.7 0.0 0.00 0.00 0.00 71 1017.1
20260504210024 54 12 1.7 0.0 0.00 0.00 0.00 71 1017.1
20260504210001 54 12 0.9 4.3 0.00 0.00 0.00 71 1016.7
20260504205533 54 12 2.6 0.0 0.00 0.00 0.00 71 1017.3
20260504205025 54 355 3.5 0.0 0.00 0.00 0.00 69 1017.0
20260504205001 54 347 3.5 7.0 0.00 0.00 0.00 69 1016.7
20260504204540 54 299 3.5 0.0 0.00 0.00 0.00 66 1017.1
20260504204501 54 302 3.5 0.0 0.00 0.00 0.00 66 1017.0
20260504204031 54 300 4.3 0.0 0.00 0.00 0.00 66 1017.0
20260504204002 54 312 4.3 7.0 0.00 0.00 0.00 65 1016.7
20260504203523 54 221 4.3 0.0 0.00 0.00 0.00 65 1016.8
20260504203037 54 213 3.5 0.0 0.00 0.00 0.00 66 1016.8
20260504203001 54 203 2.6 0.0 0.00 0.00 0.00 66 1016.7
20260504202529 55 175 1.7 0.0 0.00 0.00 0.00 67 1016.8
20260504202023 55 198 3.5 0.0 0.00 0.00 0.00 64 1016.8
20260504202000 55 199 1.7 5.2 0.00 0.00 0.00 64 1016.7
20260504201539 55 205 3.5 0.0 0.00 0.00 0.00 63 1016.8
20260504201508 55 211 3.5 0.0 0.00 0.00 0.00 63 1016.9
20260504201057 55 205 3.5 0.0 0.00 0.00 0.00 63 1016.8
20260504200529 56 203 2.6 0.0 0.00 0.00 0.00 63 1016.9
20260504200128 55 193 2.6 0.0 0.00 0.00 0.00 63 1016.8
20260504200023 56 192 3.5 0.0 0.00 0.00 0.00 63 1016.9
20260504200001 56 192 2.6 5.2 0.00 0.00 0.00 63 1016.5
20260504195531 56 205 3.5 0.0 0.00 0.00 0.00 63 1016.9
20260504195023 56 200 4.3 0.0 0.00 0.00 0.00 62 1016.7
20260504195002 56 199 5.2 6.1 0.00 0.00 0.00 62 1016.3
20260504194627 56 198 4.3 0.0 0.00 0.00 0.00 62 1016.8
20260504194537 56 197 4.3 0.0 0.00 0.00 0.00 62 1016.7
20260504194025 56 205 4.3 0.0 0.00 0.00 0.00 63 1016.7
20260504194000 56 208 4.3 6.1 0.00 0.00 0.00 63 1016.4
20260504193533 56 229 4.3 0.0 0.00 0.00 0.00 63 1016.7
20260504193116 56 211 4.3 0.0 0.00 0.00 0.00 63 1016.7
20260504193036 56 218 4.3 0.0 0.00 0.00 0.00 63 1016.7
20260504193001 56 210 4.3 5.2 0.00 0.00 0.00 63 1016.3
20260504192527 56 204 4.3 0.0 0.00 0.00 0.00 64 1016.7
20260504192034 56 202 4.3 0.0 0.00 0.00 0.00 64 1016.6
20260504192002 56 204 4.3 6.1 0.00 0.00 0.00 64 1016.3
20260504191603 55 205 4.3 0.0 0.00 0.00 0.00 64 1016.7
20260504191535 56 225 4.3 0.0 0.00 0.00 0.00 64 1016.6
20260504191019 56 205 2.6 0.0 0.00 0.00 0.00 64 1016.7
20260504191002 56 213 4.3 6.1 0.00 0.00 0.00 64 1016.5
20260504190528 56 211 1.7 0.0 0.00 0.00 0.00 65 1016.7
20260504190035 57 173 1.7 0.0 0.00 0.00 0.00 65 1016.8
20260504190007 57 173 2.6 0.0 0.00 0.00 0.00 65 1016.7
20260504190001 57 174 0.9 4.3 0.00 0.00 0.00 65 1016.4
20260504185526 58 200 3.5 0.0 0.00 0.00 0.00 65 1016.8
20260504185026 59 192 3.5 0.0 0.00 0.00 0.00 64 1016.7
20260504185001 59 192 4.3 5.2 0.00 0.00 0.00 64 1016.4
20260504184542 60 191 3.5 0.0 0.00 0.00 0.00 64 1016.6
20260504184521 59 191 3.5 0.0 0.00 0.00 0.00 64 1016.6
20260504184034 61 190 2.6 0.0 0.00 0.00 0.00 63 1016.6
20260504184002 61 190 2.6 4.3 0.00 0.00 0.00 63 1016.4
20260504183527 61 183 2.6 0.0 0.00 0.00 0.00 62 1016.7
20260504183101 62 139 1.7 0.0 0.00 0.00 0.00 60 1016.6
20260504183001 62 139 1.7 2.6 0.00 0.00 0.00 60 1016.1
20260504182529 62 146 1.7 0.0 0.00 0.00 0.00 59 1016.6
20260504182021 63 171 1.7 0.0 0.00 0.00 0.00 58 1016.5
20260504182002 63 171 0.9 2.6 0.00 0.00 0.00 58 1016.2
20260504181540 64 173 0.9 0.0 0.00 0.00 0.00 57 1016.4
20260504181513 63 173 0.9 0.0 0.00 0.00 0.00 57 1016.4
20260504181031 64 60 1.7 0.0 0.00 0.00 0.00 57 1016.4
20260504181001 64 52 0.0 5.2 0.00 0.00 0.00 56 1015.9
20260504180527 65 42 2.6 0.0 0.00 0.00 0.00 55 1016.2
20260504180040 65 33 3.5 0.0 0.00 0.00 0.00 53 1016.1
20260504180016 65 30 3.5 0.0 0.00 0.00 0.00 53 1016.0
20260504180001 65 34 2.6 6.1 0.00 0.00 0.00 53 1015.7
20260504175530 65 54 2.6 0.0 0.00 0.00 0.00 51 1015.9
20260504175023 65 336 3.5 0.0 0.00 0.00 0.00 47 1015.7
20260504174539 65 337 4.3 0.0 0.00 0.00 0.00 46 1015.8
20260504174515 64 349 4.3 0.0 0.00 0.00 0.00 46 1015.6
20260504174028 65 28 3.5 0.0 0.00 0.00 0.00 52 1015.7
20260504173524 65 55 1.7 0.0 0.00 0.00 0.00 55 1015.6
20260504173048 66 72 1.7 0.0 0.00 0.00 0.00 52 1015.5
20260504173033 67 72 1.7 0.0 0.00 0.00 0.00 50 1015.5
20260504173001 67 339 0.9 4.3 0.00 0.00 0.00 50 1015.1
20260504172534 67 273 2.6 0.0 0.00 0.00 0.00 50 1015.2
20260504172027 68 272 2.6 0.0 0.00 0.00 0.00 51 1015.2
20260504172011 68 272 1.7 2.6 0.00 0.00 0.00 50 1014.8
20260504171544 68 273 2.6 0.0 0.00 0.00 0.00 48 1015.2
20260504171524 68 273 2.6 0.0 0.00 0.00 0.00 48 1015.2
20260504171022 69 273 2.6 0.0 0.00 0.00 0.00 48 1015.2
20260504171001 69 272 1.7 2.6 0.00 0.00 0.00 48 1014.8
20260504170529 70 269 3.5 0.0 0.00 0.00 0.00 47 1015.1
20260504160126 73 281 6.1 0.0 0.00 0.00 0.00 37 1015.0
20260504151103 75 272 6.1 0.0 0.00 0.00 0.00 33 1015.1
20260504151002 75 286 5.2 10.4 0.00 0.00 0.00 36 1014.8
20260504150559 75 265 7.0 0.0 0.00 0.00 0.00 34 1015.1
20260504150110 74 253 7.0 0.0 0.00 0.00 0.00 33 1015.3
20260504141028 75 275 7.0 0.0 0.00 0.00 0.00 32 1015.4
20260504141002 75 286 8.7 13.0 0.00 0.00 0.00 32 1015.1
20260504140533 75 304 6.1 0.0 0.00 0.00 0.00 34 1015.4